TAT21SB LIRF-LICA

Flight info

Callsign TAT21SB
Flight time 0h 58m
Altitude 19000
Route RIFFI M729 PNZ M603 SOR M620 ARBUM
Aircraft F28/M-SDFIRWY/H

Departure

Time 2026-04-11 10:30
Airport Rome–Fiumicino Leonardo da Vinci International Airport (LIRF)

Arrival

Time 2026-04-11 11:28
Airport Lamezia Terme Sant'Eufemia International Airport (LICA)
Time Latitude Longitude Altitude Speed Heading
2026-04-11 10:03 41.79884 12.26497 11 ft 0 kts 70°
2026-04-11 10:24 41.79885 12.26499 11 ft 0 kts 70°
2026-04-11 10:25 41.79890 12.26517 13 ft 4 kts 64°
2026-04-11 10:25 41.79922 12.26540 11 ft 7 kts 342°
2026-04-11 10:25 41.79990 12.26508 11 ft 13 kts 340°
2026-04-11 10:25 41.80096 12.26456 12 ft 19 kts 340°
2026-04-11 10:26 41.80232 12.26406 11 ft 21 kts 359°
2026-04-11 10:26 41.80366 12.26361 12 ft 20 kts 334°
2026-04-11 10:26 41.80383 12.26223 13 ft 17 kts 252°
2026-04-11 10:26 41.80438 12.26160 13 ft 12 kts 14°
2026-04-11 10:27 41.80521 12.26212 14 ft 15 kts 54°
2026-04-11 10:27 41.80560 12.26358 15 ft 18 kts 71°
2026-04-11 10:27 41.80608 12.26531 15 ft 21 kts 69°
2026-04-11 10:27 41.80660 12.26721 12 ft 22 kts 70°
2026-04-11 10:28 41.80710 12.26912 11 ft 22 kts 71°
2026-04-11 10:28 41.80783 12.27046 11 ft 16 kts
2026-04-11 10:28 41.80870 12.27015 12 ft 12 kts 340°
2026-04-11 10:28 41.80949 12.26976 10 ft 10 kts 326°
2026-04-11 10:29 41.80958 12.26921 10 ft 4 kts 249°
2026-04-11 10:29 41.80957 12.26920 10 ft 0 kts 248°
2026-04-11 10:29 41.80887 12.26671 12 ft 68 kts 249°
2026-04-11 10:30 41.80636 12.25756 14 ft 138 kts 250°
2026-04-11 10:30 41.80286 12.24395 421 ft 166 kts 249°
2026-04-11 10:30 41.79912 12.22827 1259 ft 185 kts 251°
2026-04-11 10:30 41.79567 12.21108 2344 ft 195 kts 249°
2026-04-11 10:31 41.78724 12.19547 2872 ft 232 kts 216°
2026-04-11 10:31 41.77172 12.18842 3437 ft 241 kts 180°
2026-04-11 10:31 41.75557 12.19353 4241 ft 237 kts 159°
2026-04-11 10:31 41.74048 12.20219 5200 ft 237 kts 156°
2026-04-11 10:32 41.72470 12.21196 5401 ft 263 kts 156°
2026-04-11 10:32 41.70799 12.22434 5344 ft 288 kts 144°
2026-04-11 10:32 41.68976 12.23733 5354 ft 319 kts 165°
2026-04-11 10:32 41.66671 12.23948 5443 ft 348 kts 189°
2026-04-11 10:33 41.64273 12.22992 5620 ft 371 kts 203°
2026-04-11 10:33 41.61912 12.21610 6051 ft 368 kts 206°
2026-04-11 10:33 41.59587 12.20137 6676 ft 372 kts 207°
2026-04-11 10:33 41.57217 12.18711 7273 ft 372 kts 202°
2026-04-11 10:34 41.54750 12.17778 7838 ft 366 kts 192°
2026-04-11 10:34 41.52276 12.17135 8401 ft 360 kts 193°
2026-04-11 10:34 41.49826 12.16573 8933 ft 357 kts 184°
2026-04-11 10:34 41.47324 12.17031 9461 ft 372 kts 162°
2026-04-11 10:35 41.45027 12.18711 10026 ft 384 kts 141°
2026-04-11 10:35 41.43133 12.21264 10597 ft 392 kts 131°
2026-04-11 10:35 41.41348 12.24049 11193 ft 398 kts 130°
2026-04-11 10:35 41.39577 12.26912 11809 ft 402 kts 129°
2026-04-11 10:36 41.37803 12.29819 12423 ft 406 kts 129°
2026-04-11 10:36 41.36019 12.32750 13053 ft 410 kts 129°
2026-04-11 10:36 41.34214 12.35707 13686 ft 413 kts 129°
2026-04-11 10:36 41.32389 12.38678 14275 ft 416 kts 129°
2026-04-11 10:37 41.30482 12.41585 14858 ft 418 kts 134°
2026-04-11 10:37 41.28481 12.44395 15446 ft 419 kts 133°
2026-04-11 10:37 41.26465 12.47197 16051 ft 420 kts 134°
2026-04-11 10:37 41.24442 12.49997 16658 ft 420 kts 134°
2026-04-11 10:38 41.22418 12.52793 17273 ft 420 kts 134°
2026-04-11 10:38 41.20395 12.55586 17890 ft 419 kts 134°
2026-04-11 10:38 41.16347 12.61168 18870 ft 422 kts 134°
2026-04-11 10:39 41.14295 12.63998 19063 ft 431 kts 134°
2026-04-11 10:39 41.12184 12.66904 19058 ft 443 kts 134°
2026-04-11 10:39 41.10025 12.69877 19058 ft 453 kts 134°
2026-04-11 10:39 41.07816 12.72914 19055 ft 462 kts 134°
2026-04-11 10:40 41.05591 12.75973 19058 ft 459 kts 134°
2026-04-11 10:40 41.03382 12.79005 19054 ft 455 kts 134°
2026-04-11 10:40 41.01194 12.82011 19048 ft 451 kts 134°
2026-04-11 10:40 40.99024 12.84987 19042 ft 447 kts 134°
2026-04-11 10:41 40.96872 12.87935 19043 ft 444 kts 134°
2026-04-11 10:41 40.94737 12.90860 19038 ft 440 kts 134°
2026-04-11 10:41 40.92619 12.93763 19039 ft 438 kts 134°
2026-04-11 10:41 40.90665 12.96756 19037 ft 435 kts 123°
2026-04-11 10:42 40.89313 13.00318 19038 ft 432 kts 112°
2026-04-11 10:42 40.88196 13.03990 19042 ft 430 kts 110°
2026-04-11 10:42 40.87161 13.07694 19043 ft 429 kts 108°
2026-04-11 10:42 40.86199 13.11422 19045 ft 429 kts 107°
2026-04-11 10:43 40.84388 13.18959 19042 ft 432 kts 105°
2026-04-11 10:43 40.83519 13.22760 19046 ft 433 kts 105°
2026-04-11 10:43 40.82679 13.26580 19043 ft 434 kts 104°
2026-04-11 10:44 40.81861 13.30418 19045 ft 435 kts 104°
2026-04-11 10:44 40.81050 13.34266 19043 ft 435 kts 104°
2026-04-11 10:44 40.80242 13.38121 19043 ft 436 kts 104°
2026-04-11 10:44 40.79433 13.41989 19043 ft 439 kts 104°
2026-04-11 10:45 40.78618 13.45878 19041 ft 441 kts 104°
2026-04-11 10:45 40.77798 13.49787 19042 ft 443 kts 104°
2026-04-11 10:45 40.76984 13.53715 19042 ft 445 kts 103°
2026-04-11 10:45 40.76187 13.57670 19040 ft 447 kts 103°
2026-04-11 10:46 40.75394 13.61639 19041 ft 448 kts 103°
2026-04-11 10:46 40.74603 13.65617 19041 ft 450 kts 103°
2026-04-11 10:46 40.73821 13.69618 19039 ft 450 kts 102°
2026-04-11 10:46 40.73060 13.73619 19038 ft 449 kts 102°
2026-04-11 10:47 40.72307 13.77613 19040 ft 449 kts 102°
2026-04-11 10:47 40.71571 13.81606 19039 ft 448 kts 102°
2026-04-11 10:47 40.70749 13.85561 19037 ft 448 kts 107°
2026-04-11 10:47 40.69760 13.89456 19047 ft 447 kts 106°
2026-04-11 10:48 40.68755 13.93336 19046 ft 447 kts 107°
2026-04-11 10:48 40.67744 13.97211 19039 ft 447 kts 107°
2026-04-11 10:48 40.66731 14.01081 19039 ft 447 kts 107°
2026-04-11 10:48 40.65719 14.04945 19041 ft 447 kts 107°
2026-04-11 10:49 40.64708 14.08810 19042 ft 447 kts 107°
2026-04-11 10:49 40.63697 14.12675 19041 ft 446 kts 107°
2026-04-11 10:49 40.62685 14.16542 19043 ft 446 kts 107°
2026-04-11 10:49 40.61674 14.20404 19044 ft 446 kts 107°
2026-04-11 10:50 40.61005 14.22960 19044 ft 446 kts 107°
2026-04-11 10:50 40.59995 14.26817 19043 ft 446 kts 107°
2026-04-11 10:50 40.58985 14.30679 19040 ft 447 kts 107°
2026-04-11 10:50 40.57759 14.34434 19048 ft 450 kts 120°
2026-04-11 10:51 40.55789 14.37635 19053 ft 452 kts 136°
2026-04-11 10:51 40.53391 14.40294 19051 ft 452 kts 142°
2026-04-11 10:51 40.50882 14.42791 19049 ft 453 kts 144°
2026-04-11 10:51 40.48340 14.45240 19045 ft 453 kts 144°
2026-04-11 10:52 40.45810 14.47712 19041 ft 454 kts 144°
2026-04-11 10:52 40.43404 14.50393 19042 ft 454 kts 137°
2026-04-11 10:52 40.41023 14.53119 19039 ft 454 kts 140°
2026-04-11 10:52 40.38639 14.55845 19041 ft 455 kts 139°
2026-04-11 10:53 40.36245 14.58560 19040 ft 455 kts 139°
2026-04-11 10:53 40.33850 14.61278 19040 ft 455 kts 139°
2026-04-11 10:53 40.31455 14.63995 19037 ft 456 kts 139°
2026-04-11 10:53 40.29056 14.66712 19035 ft 456 kts 139°
2026-04-11 10:54 40.26655 14.69429 19040 ft 456 kts 139°
2026-04-11 10:54 40.24254 14.72148 19042 ft 457 kts 139°
2026-04-11 10:54 40.21883 14.74829 19042 ft 457 kts 139°
2026-04-11 10:54 40.19477 14.77546 19039 ft 457 kts 139°
2026-04-11 10:55 40.17071 14.80264 19042 ft 457 kts 139°
2026-04-11 10:55 40.14667 14.82977 19041 ft 457 kts 139°
2026-04-11 10:55 40.12255 14.85696 19041 ft 457 kts 139°
2026-04-11 10:55 40.09845 14.88412 19046 ft 458 kts 140°
2026-04-11 10:56 40.07434 14.91127 19044 ft 458 kts 139°
2026-04-11 10:56 40.05023 14.93839 19045 ft 458 kts 139°
2026-04-11 10:56 40.02611 14.96551 19046 ft 458 kts 140°
2026-04-11 10:56 40.00197 14.99265 19045 ft 458 kts 140°
2026-04-11 10:57 39.97779 15.01979 19047 ft 458 kts 139°
2026-04-11 10:57 39.95365 15.04687 19051 ft 458 kts 140°
2026-04-11 10:57 39.92947 15.07401 19041 ft 458 kts 140°
2026-04-11 10:57 39.90531 15.10106 19040 ft 459 kts 140°
2026-04-11 10:58 39.88112 15.12814 19054 ft 459 kts 140°
2026-04-11 10:58 39.85693 15.15522 19062 ft 459 kts 140°
2026-04-11 10:58 39.83273 15.18228 19065 ft 459 kts 140°
2026-04-11 10:58 39.80849 15.20935 19064 ft 459 kts 140°
2026-04-11 10:59 39.78431 15.23637 19064 ft 459 kts 140°
2026-04-11 10:59 39.76009 15.26339 19068 ft 459 kts 140°
2026-04-11 10:59 39.73585 15.29040 19059 ft 459 kts 140°
2026-04-11 10:59 39.71159 15.31745 19071 ft 459 kts 140°
2026-04-11 11:00 39.68736 15.34442 19068 ft 459 kts 140°
2026-04-11 11:00 39.66307 15.37144 19062 ft 459 kts 140°
2026-04-11 11:00 39.63881 15.39843 19076 ft 459 kts 140°
2026-04-11 11:00 39.61453 15.42541 19080 ft 460 kts 140°
2026-04-11 11:01 39.59057 15.45200 19069 ft 460 kts 140°
2026-04-11 11:01 39.56628 15.47896 19085 ft 460 kts 140°
2026-04-11 11:01 39.54199 15.50591 19086 ft 460 kts 140°
2026-04-11 11:01 39.51770 15.53279 19087 ft 460 kts 140°
2026-04-11 11:02 39.49337 15.55974 19088 ft 460 kts 140°
2026-04-11 11:02 39.46909 15.58663 19081 ft 460 kts 140°
2026-04-11 11:02 39.44476 15.61351 19084 ft 460 kts 140°
2026-04-11 11:02 39.42044 15.64040 19096 ft 460 kts 140°
2026-04-11 11:03 39.39608 15.66730 19101 ft 460 kts 140°
2026-04-11 11:03 39.37176 15.69413 19099 ft 460 kts 140°
2026-04-11 11:03 39.34739 15.72102 19096 ft 460 kts 140°
2026-04-11 11:03 39.32305 15.74782 19098 ft 460 kts 140°
2026-04-11 11:04 39.29866 15.77468 19104 ft 460 kts 140°
2026-04-11 11:04 39.27430 15.80151 19104 ft 460 kts 140°
2026-04-11 11:04 39.24994 15.82828 19099 ft 460 kts 140°
2026-04-11 11:04 39.22556 15.85507 19110 ft 460 kts 140°
2026-04-11 11:05 39.20119 15.88185 19109 ft 460 kts 140°
2026-04-11 11:05 39.17677 15.90863 19098 ft 460 kts 140°
2026-04-11 11:05 39.15337 15.93665 19097 ft 460 kts 130°
2026-04-11 11:05 39.13384 15.96928 19083 ft 460 kts 127°
2026-04-11 11:06 39.11412 16.00230 18653 ft 471 kts 128°
2026-04-11 11:06 39.09184 16.03283 18144 ft 460 kts 137°
2026-04-11 11:06 39.06938 16.06076 17605 ft 440 kts 136°
2026-04-11 11:06 39.04775 16.08761 17078 ft 425 kts 136°
2026-04-11 11:07 39.02680 16.11371 16528 ft 414 kts 136°
2026-04-11 11:07 39.00635 16.13912 16012 ft 405 kts 136°
2026-04-11 11:07 38.98656 16.16369 15517 ft 397 kts 136°
2026-04-11 11:07 38.96663 16.18846 15010 ft 391 kts 136°
2026-04-11 11:08 38.94748 16.21221 14519 ft 385 kts 136°
2026-04-11 11:08 38.92832 16.23597 14039 ft 380 kts 136°
2026-04-11 11:08 38.90880 16.25916 13518 ft 375 kts 144°
2026-04-11 11:08 38.88578 16.27415 12955 ft 369 kts 166°
2026-04-11 11:09 38.86105 16.27782 12438 ft 360 kts 187°
2026-04-11 11:09 38.83728 16.27014 11934 ft 349 kts 209°
2026-04-11 11:09 38.81692 16.25405 11473 ft 341 kts 219°
2026-04-11 11:09 38.79786 16.23622 11041 ft 338 kts 221°
2026-04-11 11:10 38.78084 16.21613 10601 ft 329 kts 237°
2026-04-11 11:10 38.77152 16.19017 10202 ft 315 kts 261°
2026-04-11 11:10 38.77151 16.16323 9783 ft 293 kts 285°
2026-04-11 11:10 38.78008 16.14093 9317 ft 273 kts 308°
2026-04-11 11:11 38.79240 16.12274 8877 ft 265 kts 313°
2026-04-11 11:11 38.80526 16.10555 8440 ft 267 kts 314°
2026-04-11 11:11 38.81879 16.08991 8001 ft 258 kts 328°
2026-04-11 11:11 38.83576 16.08382 7599 ft 256 kts 358°
2026-04-11 11:12 38.85302 16.09012 7296 ft 267 kts 27°
2026-04-11 11:12 38.86736 16.10564 7029 ft 272 kts 40°
2026-04-11 11:12 38.88054 16.12311 6775 ft 273 kts 43°
2026-04-11 11:12 38.89336 16.14109 6600 ft 273 kts 44°
2026-04-11 11:13 38.90598 16.15921 6423 ft 272 kts 44°
2026-04-11 11:13 38.91852 16.17741 6236 ft 272 kts 45°
2026-04-11 11:13 38.92939 16.19735 6029 ft 278 kts 65°
2026-04-11 11:13 38.93212 16.22177 6021 ft 278 kts 94°
2026-04-11 11:14 38.92613 16.24511 6062 ft 275 kts 115°
2026-04-11 11:14 38.91701 16.26647 6046 ft 271 kts 121°
2026-04-11 11:14 38.90689 16.28667 6031 ft 267 kts 123°
2026-04-11 11:14 38.89638 16.30614 6031 ft 263 kts 125°
2026-04-11 11:15 38.88581 16.32517 6034 ft 260 kts 126°
2026-04-11 11:15 38.87531 16.34359 6041 ft 258 kts 127°
2026-04-11 11:15 38.86443 16.36215 6051 ft 256 kts 127°
2026-04-11 11:15 38.85394 16.38051 6081 ft 255 kts 124°
2026-04-11 11:16 38.84462 16.39946 6083 ft 254 kts 120°
2026-04-11 11:16 38.83586 16.41913 6099 ft 253 kts 118°
2026-04-11 11:16 38.82784 16.43888 6097 ft 246 kts 116°
2026-04-11 11:16 38.82024 16.45824 6076 ft 240 kts 115°
2026-04-11 11:17 38.81298 16.47724 6037 ft 234 kts 115°
2026-04-11 11:17 38.80586 16.49569 6023 ft 228 kts 116°
2026-04-11 11:17 38.79876 16.51357 6026 ft 223 kts 117°
2026-04-11 11:17 38.79152 16.53087 6033 ft 218 kts 118°
2026-04-11 11:18 38.78422 16.54770 6031 ft 214 kts 118°
2026-04-11 11:18 38.77702 16.56425 6013 ft 211 kts 118°
2026-04-11 11:18 38.77173 16.58140 6039 ft 205 kts 92°
2026-04-11 11:18 38.77454 16.59851 6001 ft 194 kts 53°
2026-04-11 11:19 38.78451 16.60915 5810 ft 187 kts 15°
2026-04-11 11:19 38.79698 16.61386 5629 ft 188 kts 11°
2026-04-11 11:19 38.80969 16.61826 5452 ft 191 kts 11°
2026-04-11 11:19 38.82261 16.62257 5276 ft 192 kts
2026-04-11 11:20 38.83575 16.62607 5204 ft 193 kts
2026-04-11 11:20 38.84905 16.62634 5027 ft 191 kts 346°
2026-04-11 11:20 38.86012 16.61781 4854 ft 189 kts 306°
2026-04-11 11:20 38.86445 16.60205 4708 ft 190 kts 279°
2026-04-11 11:21 38.86628 16.58530 4595 ft 190 kts 278°
2026-04-11 11:21 38.86791 16.56850 4438 ft 190 kts 277°
2026-04-11 11:21 38.86942 16.55191 4323 ft 182 kts 278°
2026-04-11 11:21 38.87094 16.53627 4153 ft 172 kts 277°
2026-04-11 11:22 38.87247 16.52157 3959 ft 156 kts 278°
2026-04-11 11:22 38.87387 16.50885 3745 ft 134 kts 279°
2026-04-11 11:22 38.87518 16.49798 3539 ft 114 kts 280°
2026-04-11 11:22 38.87659 16.48780 3395 ft 119 kts 279°
2026-04-11 11:23 38.87802 16.47702 3396 ft 125 kts 278°
2026-04-11 11:23 38.87934 16.46557 3196 ft 133 kts 278°
2026-04-11 11:23 38.88076 16.45397 3149 ft 130 kts 278°
2026-04-11 11:23 38.88199 16.44308 2897 ft 117 kts 278°
2026-04-11 11:24 38.88319 16.43317 2765 ft 109 kts 279°
2026-04-11 11:24 38.88439 16.42287 2622 ft 123 kts 278°
2026-04-11 11:24 38.88572 16.41187 2490 ft 130 kts 278°
2026-04-11 11:24 38.88695 16.40056 2252 ft 126 kts 276°
2026-04-11 11:25 38.88810 16.38952 2075 ft 125 kts 276°
2026-04-11 11:25 38.88934 16.37843 1929 ft 127 kts 278°
2026-04-11 11:25 38.89071 16.36731 1747 ft 126 kts 278°
2026-04-11 11:25 38.89205 16.35601 1547 ft 128 kts 278°
2026-04-11 11:26 38.89345 16.34484 1387 ft 125 kts 279°
2026-04-11 11:26 38.89474 16.33369 1229 ft 126 kts 278°
2026-04-11 11:26 38.89606 16.32272 1041 ft 122 kts 279°
2026-04-11 11:26 38.89737 16.31184 848 ft 126 kts 279°
2026-04-11 11:27 38.89873 16.30081 722 ft 124 kts 278°
2026-04-11 11:27 38.89978 16.29007 553 ft 122 kts 277°
2026-04-11 11:27 38.90108 16.27917 397 ft 125 kts 278°
2026-04-11 11:27 38.90235 16.26833 227 ft 120 kts 278°
2026-04-11 11:28 38.90357 16.25805 69 ft 113 kts 278°
2026-04-11 11:28 38.90448 16.24956 44 ft 77 kts 279°
2026-04-11 11:28 38.90514 16.24471 42 ft 41 kts 279°
2026-04-11 11:28 38.90551 16.24144 40 ft 33 kts 277°
2026-04-11 11:29 38.90625 16.23672 43 ft 23 kts 300°
2026-04-11 11:29 38.90715 16.23525 42 ft 19 kts 312°
2026-04-11 11:29 38.90822 16.23514 40 ft 16 kts 47°
2026-04-11 11:30 38.90831 16.23649 42 ft 16 kts 99°
2026-04-11 11:30 38.90815 16.23785 42 ft 15 kts 98°
2026-04-11 11:30 38.90799 16.23920 42 ft 15 kts 98°
2026-04-11 11:30 38.90784 16.24053 42 ft 15 kts 98°
2026-04-11 11:31 38.90782 16.24167 42 ft 9 kts 57°
2026-04-11 11:31 38.90825 16.24229 42 ft 9 kts 35°
2026-04-11 11:31 38.90883 16.24247 42 ft 7 kts
2026-04-11 11:31 38.90893 16.24249 42 ft 0 kts
2026-04-11 11:32 38.90898 16.24253 42 ft 1 kts 37°
2026-04-11 11:32 38.90900 16.24258 42 ft 1 kts 73°
2026-04-11 11:32 38.90899 16.24272 42 ft 2 kts 99°
2026-04-11 11:32 38.90896 16.24289 42 ft 2 kts 101°
2026-04-11 11:33 38.90896 16.24292 42 ft 0 kts 100°